| time (UTC) | temp C | wind direction | speed KPH | gust KPH | rain 1hr cm | rain 24hr cm | rain mn cm | humidity % | barometer mb |
| 20260504202353 | 23 | 294 | 4.8 | 12.9 | 0.00 | 0.00 | 0.00 | 39 | 1009.7 |
| 20260504201853 | 23 | 254 | 3.2 | 8.0 | 0.00 | 0.00 | 0.00 | 38 | 1009.7 |
| 20260504201353 | 23 | 159 | 3.2 | 8.0 | 0.00 | 0.00 | 0.00 | 39 | 1009.7 |
| 20260504200854 | 23 | 236 | 3.2 | 9.7 | 0.00 | 0.00 | 0.00 | 39 | 1009.8 |
| 20260504200353 | 23 | 186 | 3.2 | 9.7 | 0.00 | 0.00 | 0.00 | 38 | 1010.0 |
| 20260504195855 | 23 | 183 | 4.8 | 9.7 | 0.00 | 0.00 | 0.00 | 38 | 1010.0 |
| 20260504195850 | 23 | 129 | 3.2 | 14.5 | 0.00 | 0.00 | 0.00 | 39 | 1010.0 |
| 20260504194851 | 22 | 158 | 3.2 | 14.5 | 0.00 | 0.00 | 0.00 | 41 | 1010.1 |
| 20260504194350 | 23 | 221 | 4.8 | 14.5 | 0.00 | 0.00 | 0.00 | 40 | 1010.2 |
| 20260504193849 | 23 | 95 | 4.8 | 14.5 | 0.00 | 0.00 | 0.00 | 38 | 1010.3 |
| 20260504193340 | 22 | 53 | 4.8 | 11.3 | 0.00 | 0.00 | 0.00 | 40 | 1010.3 |
| 20260504192839 | 22 | 182 | 4.8 | 11.3 | 0.00 | 0.00 | 0.00 | 43 | 1010.3 |
| 20260504192338 | 22 | 215 | 3.2 | 9.7 | 0.00 | 0.00 | 0.00 | 41 | 1010.5 |
| 20260504191838 | 22 | 114 | 3.2 | 6.4 | 0.00 | 0.00 | 0.00 | 38 | 1010.6 |
| 20260504191335 | 22 | 259 | 3.2 | 8.0 | 0.00 | 0.00 | 0.00 | 40 | 1010.8 |
| 20260504190836 | 22 | 219 | 4.8 | 14.5 | 0.00 | 0.00 | 0.00 | 41 | 1010.9 |
| 20260504190341 | 22 | 288 | 3.2 | 14.5 | 0.00 | 0.00 | 0.00 | 39 | 1011.1 |
| 20260504190336 | 22 | 209 | 4.8 | 14.5 | 0.00 | 0.00 | 0.00 | 39 | 1010.9 |
| 20260504185333 | 22 | 333 | 6.4 | 14.5 | 0.00 | 0.00 | 0.00 | 42 | 1011.1 |
| 20260504184833 | 22 | 292 | 4.8 | 14.5 | 0.00 | 0.00 | 0.00 | 39 | 1011.3 |
| 20260504184331 | 22 | 317 | 4.8 | 9.7 | 0.00 | 0.00 | 0.00 | 42 | 1011.3 |
| 20260504183837 | 21 | 238 | 3.2 | 9.7 | 0.00 | 0.00 | 0.00 | 44 | 1011.5 |
| 20260504183832 | 22 | 168 | 4.8 | 9.7 | 0.00 | 0.00 | 0.00 | 40 | 1011.4 |
| 20260504182830 | 21 | 308 | 3.2 | 9.7 | 0.00 | 0.00 | 0.00 | 39 | 1011.6 |
| 20260504182826 | 21 | 168 | 3.2 | 8.0 | 0.00 | 0.00 | 0.00 | 41 | 1011.5 |
| 20260504181824 | 21 | 183 | 3.2 | 9.7 | 0.00 | 0.00 | 0.00 | 40 | 1011.7 |
| 20260504181329 | 22 | 166 | 3.2 | 11.3 | 0.00 | 0.00 | 0.00 | 43 | 1011.9 |
| 20260504181324 | 21 | 101 | 3.2 | 11.3 | 0.00 | 0.00 | 0.00 | 41 | 1011.7 |
| 20260504180323 | 22 | 21 | 4.8 | 12.9 | 0.00 | 0.00 | 0.00 | 41 | 1012.0 |
| 20260504175828 | 21 | 136 | 3.2 | 12.9 | 0.00 | 0.00 | 0.00 | 43 | 1012.2 |
| 20260504175824 | 21 | 176 | 4.8 | 12.9 | 0.00 | 0.00 | 0.00 | 43 | 1012.0 |
| 20260504174822 | 21 | 221 | 3.2 | 12.9 | 0.00 | 0.00 | 0.00 | 42 | 1012.2 |
| 20260504174322 | 21 | 177 | 3.2 | 11.3 | 0.00 | 0.00 | 0.00 | 43 | 1012.1 |
| 20260504174318 | 21 | 155 | 4.8 | 11.3 | 0.00 | 0.00 | 0.00 | 41 | 1012.2 |
| 20260504173303 | 21 | 97 | 4.8 | 12.9 | 0.00 | 0.00 | 0.00 | 41 | 1012.2 |
| 20260504172804 | 21 | 333 | 3.2 | 12.9 | 0.00 | 0.00 | 0.00 | 42 | 1012.4 |
| 20260504172759 | 21 | 206 | 3.2 | 12.9 | 0.00 | 0.00 | 0.00 | 43 | 1012.5 |
| 20260504171756 | 20 | 165 | 3.2 | 8.0 | 0.00 | 0.00 | 0.00 | 44 | 1012.5 |
| 20260504171259 | 21 | 251 | 4.8 | 9.7 | 0.00 | 0.00 | 0.00 | 42 | 1012.5 |
| 20260504170754 | 20 | 233 | 4.8 | 11.3 | 0.00 | 0.00 | 0.00 | 43 | 1012.6 |
| 20260504170749 | 20 | 190 | 3.2 | 9.7 | 0.00 | 0.00 | 0.00 | 45 | 1012.6 |
| 20260504160227 | 19 | 196 | 4.8 | 14.5 | 0.00 | 0.00 | 0.00 | 44 | 1013.4 |
| 20260504150711 | 18 | 210 | 3.2 | 14.5 | 0.00 | 0.00 | 0.00 | 45 | 1014.0 |
| 20260504150212 | 18 | 79 | 4.8 | 14.5 | 0.00 | 0.00 | 0.00 | 47 | 1014.1 |
| 20260504141204 | 16 | 207 | 3.2 | 9.7 | 0.00 | 0.00 | 0.00 | 52 | 1014.2 |
| 20260504140703 | 15 | 158 | 3.2 | 9.7 | 0.00 | 0.00 | 0.00 | 52 | 1014.2 |
| 20260504140204 | 15 | 165 | 1.6 | 6.4 | 0.00 | 0.00 | 0.00 | 56 | 1014.2 |
| 20260504130637 | 12 | 306 | 0.0 | 1.6 | 0.00 | 0.00 | 0.00 | 66 | 1014.7 |
| 20260504130136 | 12 | 306 | 0.0 | 4.8 | 0.00 | 0.00 | 0.00 | 68 | 1014.8 |
| 20260504110528 | 8 | 299 | 0.0 | 3.2 | 0.00 | 0.00 | 0.00 | 81 | 1015.1 |
| 20260504100519 | 7 | 275 | 0.0 | 0.0 | 0.00 | 0.00 | 0.00 | 79 | 1015.1 |
| 20260504081945 | 8 | 275 | 0.0 | 0.0 | 0.00 | 0.00 | 0.00 | 74 | 1015.4 |
| 20260504081445 | 8 | 275 | 0.0 | 1.6 | 0.00 | 0.00 | 0.00 | 74 | 1015.5 |
| 20260504080946 | 8 | 275 | 0.0 | 1.6 | 0.00 | 0.00 | 0.00 | 74 | 1015.5 |
| 20260504080939 | 8 | 275 | 0.0 | 1.6 | 0.00 | 0.00 | 0.00 | 76 | 1015.5 |
| 20260504050357 | 6 | 275 | 0.0 | 1.6 | 0.00 | 0.00 | 0.00 | 76 | 1016.0 |
| 20260504045848 | 6 | 275 | 0.0 | 1.6 | 0.00 | 0.00 | 0.00 | 75 | 1016.0 |
| 20260504045348 | 6 | 275 | 0.0 | 1.6 | 0.00 | 0.00 | 0.00 | 76 | 1016.0 |
| 20260504044846 | 6 | 275 | 0.0 | 1.6 | 0.00 | 0.00 | 0.00 | 75 | 1016.0 |
| 20260504044347 | 6 | 275 | 0.0 | 1.6 | 0.00 | 0.00 | 0.00 | 76 | 1015.9 |
| 20260504043845 | 6 | 275 | 0.0 | 1.6 | 0.00 | 0.00 | 0.00 | 76 | 1015.9 |
| 20260504043346 | 6 | 275 | 0.0 | 1.6 | 0.00 | 0.00 | 0.00 | 75 | 1015.8 |
| 20260504042839 | 6 | 275 | 0.0 | 0.0 | 0.00 | 0.00 | 0.00 | 74 | 1015.8 |
| 20260504042338 | 6 | 275 | 0.0 | 0.0 | 0.00 | 0.00 | 0.00 | 76 | 1015.8 |
| 20260504041839 | 6 | 275 | 0.0 | 0.0 | 0.00 | 0.00 | 0.00 | 76 | 1015.9 |
| 20260504041343 | 6 | 275 | 0.0 | 0.0 | 0.00 | 0.00 | 0.00 | 75 | 1015.8 |
| 20260504041338 | 6 | 275 | 0.0 | 0.0 | 0.00 | 0.00 | 0.00 | 75 | 1015.9 |
| 20260504040337 | 6 | 275 | 0.0 | 0.0 | 0.00 | 0.00 | 0.00 | 74 | 1015.8 |
| 20260504035832 | 6 | 275 | 0.0 | 0.0 | 0.00 | 0.00 | 0.00 | 75 | 1015.8 |
| 20260504035825 | 6 | 275 | 0.0 | 0.0 | 0.00 | 0.00 | 0.00 | 74 | 1015.8 |
| 20260504034824 | 6 | 275 | 0.0 | 0.0 | 0.00 | 0.00 | 0.00 | 74 | 1015.9 |
| 20260504034813 | 6 | 275 | 0.0 | 0.0 | 0.00 | 0.00 | 0.00 | 75 | 1015.8 |
| 20260504034418 | 6 | 275 | 0.0 | 0.0 | 0.00 | 0.00 | 0.00 | 75 | 1015.8 |
| 20260504033315 | 7 | 275 | 0.0 | 0.0 | 0.00 | 0.00 | 0.00 | 74 | 1015.7 |
| 20260504033311 | 6 | 275 | 0.0 | 0.0 | 0.00 | 0.00 | 0.00 | 75 | 1015.7 |
| 20260504032313 | 7 | 275 | 0.0 | 0.0 | 0.00 | 0.00 | 0.00 | 73 | 1015.6 |
| 20260504032309 | 7 | 275 | 0.0 | 0.0 | 0.00 | 0.00 | 0.00 | 73 | 1015.6 |
| 20260504031309 | 7 | 275 | 0.0 | 0.0 | 0.00 | 0.00 | 0.00 | 72 | 1015.5 |
| 20260504030806 | 7 | 275 | 0.0 | 0.0 | 0.00 | 0.00 | 0.00 | 71 | 1015.5 |
| 20260504030306 | 7 | 275 | 0.0 | 0.0 | 0.00 | 0.00 | 0.00 | 69 | 1015.5 |
| 20260504030300 | 7 | 275 | 0.0 | 0.0 | 0.00 | 0.00 | 0.00 | 69 | 1015.5 |
| 20260504025301 | 7 | 275 | 0.0 | 0.0 | 0.00 | 0.00 | 0.00 | 69 | 1015.4 |
| 20260504024803 | 7 | 275 | 0.0 | 0.0 | 0.00 | 0.00 | 0.00 | 66 | 1015.3 |
| 20260504024758 | 7 | 275 | 0.0 | 0.0 | 0.00 | 0.00 | 0.00 | 67 | 1015.3 |
| 20260504023749 | 7 | 275 | 0.0 | 0.0 | 0.00 | 0.00 | 0.00 | 65 | 1015.3 |
| 20260504023248 | 7 | 275 | 0.0 | 0.0 | 0.00 | 0.00 | 0.00 | 65 | 1015.3 |
| 20260504022742 | 8 | 275 | 0.0 | 0.0 | 0.00 | 0.00 | 0.00 | 64 | 1015.2 |
| 20260504022738 | 8 | 275 | 0.0 | 0.0 | 0.00 | 0.00 | 0.00 | 64 | 1015.2 |
| 20260504021740 | 8 | 275 | 0.0 | 0.0 | 0.00 | 0.00 | 0.00 | 62 | 1015.2 |
| 20260504021734 | 8 | 275 | 0.0 | 0.0 | 0.00 | 0.00 | 0.00 | 62 | 1015.2 |
| 20260504020734 | 8 | 275 | 0.0 | 0.0 | 0.00 | 0.00 | 0.00 | 61 | 1015.1 |
| 20260504020232 | 8 | 275 | 0.0 | 0.0 | 0.00 | 0.00 | 0.00 | 60 | 1015.2 |
| 20260504015734 | 8 | 275 | 0.0 | 0.0 | 0.00 | 0.00 | 0.00 | 57 | 1015.1 |
| 20260504015232 | 8 | 275 | 0.0 | 0.0 | 0.00 | 0.00 | 0.00 | 57 | 1015.1 |
| 20260504014731 | 9 | 275 | 0.0 | 0.0 | 0.00 | 0.00 | 0.00 | 56 | 1015.0 |
| 20260504014230 | 9 | 275 | 0.0 | 0.0 | 0.00 | 0.00 | 0.00 | 57 | 1014.9 |
| 20260504013734 | 9 | 275 | 0.0 | 3.2 | 0.00 | 0.00 | 0.00 | 56 | 1015.0 |
| 20260504013729 | 9 | 275 | 0.0 | 0.0 | 0.00 | 0.00 | 0.00 | 56 | 1014.9 |
| 20260504012729 | 10 | 275 | 0.0 | 3.2 | 0.00 | 0.00 | 0.00 | 56 | 1014.9 |
| 20260504012228 | 10 | 275 | 0.0 | 3.2 | 0.00 | 0.00 | 0.00 | 57 | 1014.9 |
| 20260504011724 | 10 | 275 | 0.0 | 3.2 | 0.00 | 0.00 | 0.00 | 55 | 1014.8 |
| 20260504011226 | 10 | 275 | 0.0 | 0.0 | 0.00 | 0.00 | 0.00 | 53 | 1014.9 |
| 20260504010725 | 10 | 275 | 0.0 | 0.0 | 0.00 | 0.00 | 0.00 | 55 | 1014.9 |
| 20260504010224 | 10 | 275 | 0.0 | 0.0 | 0.00 | 0.00 | 0.00 | 51 | 1014.8 |
| 20260504005726 | 10 | 275 | 0.0 | 0.0 | 0.00 | 0.00 | 0.00 | 51 | 1014.8 |
| 20260504005228 | 11 | 275 | 0.0 | 0.0 | 0.00 | 0.00 | 0.00 | 50 | 1014.8 |
| 20260504005223 | 11 | 275 | 0.0 | 0.0 | 0.00 | 0.00 | 0.00 | 51 | 1014.7 |
| 20260504004222 | 11 | 275 | 0.0 | 0.0 | 0.00 | 0.00 | 0.00 | 51 | 1014.6 |
| 20260504003723 | 11 | 275 | 0.0 | 0.0 | 0.00 | 0.00 | 0.00 | 48 | 1014.6 |
| 20260504003222 | 11 | 275 | 0.0 | 0.0 | 0.00 | 0.00 | 0.00 | 47 | 1014.6 |
| 20260504002729 | 12 | 275 | 0.0 | 0.0 | 0.00 | 0.00 | 0.00 | 45 | 1014.5 |
| 20260504002724 | 12 | 275 | 0.0 | 0.0 | 0.00 | 0.00 | 0.00 | 46 | 1014.5 |
| 20260504001836 | 13 | 275 | 0.0 | 4.8 | 0.00 | 0.00 | 0.00 | 43 | 1014.3 |
| 20260504001720 | 12 | 275 | 0.0 | 1.6 | 0.00 | 0.00 | 0.00 | 44 | 1014.5 |
| 20260504001226 | 13 | 275 | 0.0 | 4.8 | 0.00 | 0.00 | 0.00 | 43 | 1014.4 |
| 20260504001221 | 12 | 275 | 0.0 | 1.6 | 0.00 | 0.00 | 0.00 | 44 | 1014.5 |
| 20260503235720 | 13 | 275 | 0.0 | 4.8 | 0.00 | 0.00 | 0.00 | 41 | 1014.3 |
| 20260503235221 | 13 | 298 | 0.0 | 6.4 | 0.00 | 0.00 | 0.00 | 40 | 1014.2 |
| 20260503235216 | 13 | 275 | 0.0 | 4.8 | 0.00 | 0.00 | 0.00 | 41 | 1014.4 |
| 20260503234216 | 14 | 308 | 1.6 | 6.4 | 0.00 | 0.00 | 0.00 | 40 | 1014.2 |
| 20260503233812 | 15 | 322 | 3.2 | 14.5 | 0.00 | 0.00 | 0.00 | 39 | 1014.2 |
| 20260503233716 | 14 | 174 | 1.6 | 6.4 | 0.00 | 0.00 | 0.00 | 39 | 1014.2 |
| 20260503233708 | 15 | 315 | 4.8 | 14.5 | 0.00 | 0.00 | 0.00 | 38 | 1014.2 |
| 20260503232207 | 15 | 239 | 6.4 | 14.5 | 0.00 | 0.00 | 0.00 | 34 | 1014.1 |
| 20260503231707 | 16 | 269 | 8.0 | 17.7 | 0.00 | 0.00 | 0.00 | 33 | 1014.1 |
| 20260503231158 | 16 | 309 | 6.4 | 17.7 | 0.00 | 0.00 | 0.00 | 33 | 1014.0 |
| 20260503230658 | 16 | 281 | 6.4 | 14.5 | 0.00 | 0.00 | 0.00 | 33 | 1014.0 |
| 20260503230203 | 15 | 289 | 3.2 | 14.5 | 0.00 | 0.00 | 0.00 | 34 | 1014.0 |
| 20260503230159 | 16 | 260 | 4.8 | 14.5 | 0.00 | 0.00 | 0.00 | 34 | 1013.9 |
| 20260503225156 | 15 | 355 | 1.6 | 12.9 | 0.00 | 0.00 | 0.00 | 36 | 1014.0 |
| 20260503224653 | 16 | 355 | 4.8 | 12.9 | 0.00 | 0.00 | 0.00 | 37 | 1014.0 |
| 20260503224154 | 16 | 329 | 6.4 | 12.9 | 0.00 | 0.00 | 0.00 | 33 | 1014.0 |
| 20260503223655 | 16 | 323 | 6.4 | 16.1 | 0.00 | 0.00 | 0.00 | 31 | 1014.0 |
| 20260503223159 | 16 | 44 | 8.0 | 25.7 | 0.00 | 0.00 | 0.00 | 32 | 1014.1 |
| 20260503223154 | 16 | 314 | 4.8 | 24.1 | 0.00 | 0.00 | 0.00 | 32 | 1014.1 |
| 20260503222758 | 16 | 0 | 8.0 | 24.1 | 0.00 | 0.00 | 0.00 | 32 | 1014.1 |
| 20260503221653 | 16 | 343 | 4.8 | 25.7 | 0.00 | 0.00 | 0.00 | 35 | 1014.1 |
| 20260503221147 | 16 | 290 | 8.0 | 20.9 | 0.00 | 0.00 | 0.00 | 32 | 1014.1 |
| 20260503221143 | 16 | 340 | 6.4 | 20.9 | 0.00 | 0.00 | 0.00 | 35 | 1014.1 |
| 20260503220129 | 16 | 313 | 8.0 | 20.9 | 0.00 | 0.00 | 0.00 | 32 | 1014.1 |
| 20260503215631 | 16 | 298 | 8.0 | 17.7 | 0.00 | 0.00 | 0.00 | 33 | 1014.1 |
| 20260503215134 | 16 | 301 | 8.0 | 24.1 | 0.00 | 0.00 | 0.00 | 33 | 1014.2 |
| 20260503215129 | 16 | 314 | 8.0 | 17.7 | 0.00 | 0.00 | 0.00 | 32 | 1014.1 |
| 20260503214131 | 16 | 313 | 8.0 | 24.1 | 0.00 | 0.00 | 0.00 | 32 | 1014.2 |
| 20260503213630 | 16 | 329 | 9.7 | 24.1 | 0.00 | 0.00 | 0.00 | 34 | 1014.2 |
| 20260503213125 | 16 | 281 | 8.0 | 24.1 | 0.00 | 0.00 | 0.00 | 30 | 1014.3 |
| 20260503212626 | 17 | 16 | 8.0 | 20.9 | 0.00 | 0.00 | 0.00 | 31 | 1014.2 |
| 20260503212125 | 16 | 351 | 8.0 | 20.9 | 0.00 | 0.00 | 0.00 | 31 | 1014.3 |
| 20260503211621 | 16 | 0 | 8.0 | 20.9 | 0.00 | 0.00 | 0.00 | 35 | 1014.2 |
| 20260503211122 | 16 | 267 | 9.7 | 32.2 | 0.00 | 0.00 | 0.00 | 31 | 1014.3 |
| 20260503210622 | 16 | 293 | 6.4 | 32.2 | 0.00 | 0.00 | 0.00 | 32 | 1014.2 |
| 20260503210121 | 16 | 277 | 8.0 | 32.2 | 0.00 | 0.00 | 0.00 | 37 | 1014.4 |
| 20260503210117 | 16 | 349 | 6.4 | 32.2 | 0.00 | 0.00 | 0.00 | 36 | 1014.2 |
| 20260503205117 | 16 | 324 | 8.0 | 20.9 | 0.00 | 0.00 | 0.00 | 32 | 1014.4 |
| 20260503204618 | 16 | 320 | 8.0 | 20.9 | 0.00 | 0.00 | 0.00 | 31 | 1014.5 |
| 20260503204116 | 16 | 290 | 8.0 | 20.9 | 0.00 | 0.00 | 0.00 | 34 | 1014.4 |
| 20260503203614 | 16 | 281 | 11.3 | 24.1 | 0.00 | 0.00 | 0.00 | 33 | 1014.4 |
| 20260503203115 | 16 | 307 | 11.3 | 24.1 | 0.00 | 0.00 | 0.00 | 31 | 1014.4 |